• MPC Preparation (Info)

  • MPEC 2016-O02 : 2014 NW65

    The following Minor Planet Electronic Circular may be linked-to from your own Web pages, but must not otherwise be redistributed electronically.

    A form allowing access to any MPEC is at the bottom of this page.


    Read MPEC 2016-O01 Read MPEC 2016-O03


    M.P.E.C. 2016-O02                                Issued 2016 July 16, 00:04 UT
    
         The Minor Planet Electronic Circulars contain information on unusual
             minor planets and routine data on comets.  They are published
        on behalf of Division F of the International Astronomical Union by the
              Minor Planet Center, Smithsonian Astrophysical Observatory,
                              Cambridge, MA 02138, U.S.A.
    
                 Prepared using the Tamkin Foundation Computer Network
    
                                  MPC@CFA.HARVARD.EDU
                URL https://www.minorplanetcenter.net/    ISSN 1523-6714
    
                                       2014 NW65
    
    Observations:
         K14N65W  C2011 08 21.31200 20 24 27.674+02 26 52.32         20.9 rLEO002F51
         K14N65W  C2011 08 21.32299 20 24 27.602+02 26 51.86         20.8 rLEO002F51
         K14N65W  C2011 08 21.35861 20 24 27.370+02 26 50.33         20.8 iLEO002F51
         K14N65W  C2011 08 21.37073 20 24 27.293+02 26 49.93         20.8 iLEO002F51
         K14N65W  C2013 08 02.48205 20 42 21.739+03 35 57.65         21.0 gLEO002F51
         K14N65W  C2013 08 02.49469 20 42 21.641+03 35 57.25         21.0 gLEO002F51
         K14N65W  C2013 08 02.50725 20 42 21.544+03 35 56.80         20.6 rLEO002F51
         K14N65W  C2013 08 02.51841 20 42 21.459+03 35 56.51         20.6 rLEO002F51
         K14N65W* C2014 07 02.44579 20 54 25.049+04 14 15.41         20.7 wLEO002F51
         K14N65W  C2014 07 02.45787 20 54 24.974+04 14 15.45         20.6 wLEO002F51
         K14N65W  C2014 07 02.46999 20 54 24.894+04 14 15.49         20.8 wLEO002F51
         K14N65W  C2014 07 02.48214 20 54 24.822+04 14 15.42         20.7 wLEO002F51
         K14N65W  C2014 07 04.43958 20 54 12.736+04 14 15.53         20.9 wLEO002F51
         K14N65W  C2014 07 04.45162 20 54 12.658+04 14 15.50         20.8 wLEO002F51
         K14N65W  C2014 07 04.46367 20 54 12.583+04 14 15.54         20.8 wLEO002F51
         K14N65W  C2014 07 04.47576 20 54 12.507+04 14 15.50         20.7 wLEO002F51
         K14N65W  C2014 09 14.24287 20 46 03.395+03 35 10.51         20.5 wLEO002F51
         K14N65W  C2014 09 14.25425 20 46 03.335+03 35 09.77         20.6 wLEO002F51
         K14N65W  C2014 09 14.26561 20 46 03.283+03 35 09.34         20.5 wLEO002F51
         K14N65W  C2014 09 14.27699 20 46 03.219+03 35 08.67         20.6 wLEO002F51
         K14N65W  C2014 09 30.29649 20 44 55.900+03 20 21.01         20.3 iLEO002F51
         K14N65W  C2014 09 30.30804 20 44 55.859+03 20 20.44         20.4 iLEO002F51
         K14N65W  C2014 09 30.31962 20 44 55.820+03 20 19.66         20.5 iLEO002F51
         K14N65W  C2014 09 30.39385 20 44 55.572+03 20 15.66         20.5 iLEO002F51
         K14N65W  C2014 10 12.26976 20 44 27.405+03 09 27.20         20.5 iLEO002F51
         K14N65W  C2014 10 12.28306 20 44 27.381+03 09 26.10         20.7 iLEO002F51
         K14N65W  C2014 10 12.29791 20 44 27.380+03 09 25.46         20.5 iLEO002F51
         K14N65W  C2014 10 12.31116 20 44 27.309+03 09 24.83         20.6 iLEO002F51
         K14N65W  C2015 06 12.53829 21 04 54.406+04 41 22.39         20.5 iLEO002F51
         K14N65W  C2015 06 12.55132 21 04 54.352+04 41 22.70         20.4 iLEO002F51
         K14N65W  C2015 06 12.56438 21 04 54.307+04 41 22.95         20.4 iLEO002F51
         K14N65W  C2015 06 12.57747 21 04 54.255+04 41 23.31         20.5 iLEO002F51
         K14N65W  C2015 07 15.42135 21 01 51.654+04 44 45.14         20.6 wLEO002F51
         K14N65W  C2015 07 15.43239 21 01 51.585+04 44 44.92         20.5 wLEO002F51
         K14N65W  C2015 07 15.44535 21 01 51.491+04 44 44.80         20.6 wLEO002F51
         K14N65W  C2015 07 15.45742 21 01 51.404+04 44 44.71         20.6 wLEO002F51
    
    Observer details:
    F51 Pan-STARRS 1, Haleakala.  Observers B. Gibson, T. Goggia, N. Primak,
        A. Schultz, M. Willman.  Measurers K. Chambers, S. Chastel, Y.-T. Chen,
        L. Denneau, H. Flewelling, M. Holman, M. Huber, R. Jedicke, M. Lackner,
        E. Lilly, H.-W. Lin, E. Magnier, M. Micheli, M. Payne, P. Veres,
        R. Wainscoat, C. Waters, R. Weryk.  1.8-m Ritchey-Chretien + CCD.
    
    Orbital elements:
    2014 NW65
    Epoch 2016 July 31.0 TT = JDT 2457600.5                 MPC
    M 289.03696              (2000.0)            P               Q
    n   0.00890366     Peri.  233.74925     +0.03768338     -0.97814575
    a  23.0545706      Node   215.79688     +0.99172896     +0.06173057
    e   0.5187895      Incl.   20.46194     +0.12269322     -0.19854529
    P 110.70           H    6.4           G   0.15           U   2
    Residuals in seconds of arc
    110821 F51  0.0   0.0     140704 F51  0.1-  0.0     141012 F51  0.1+  0.1+
    110821 F51  0.0   0.0     140704 F51  0.1-  0.0     141012 F51  0.0   0.3-
    110821 F51  0.0   0.1-    140704 F51  0.0   0.0     141012 F51  0.4+  0.1-
    110821 F51  0.0   0.0     140704 F51  0.0   0.0     141012 F51  0.3-  0.1-
    130802 F51  0.1+  0.1+    140914 F51  0.1-  0.0     150612 F51  0.0   0.1-
    130802 F51  0.1+  0.1+    140914 F51  0.1-  0.1-    150612 F51  0.1-  0.1-
    130802 F51  0.0   0.0     140914 F51  0.1+  0.1+    150612 F51  0.0   0.1-
    130802 F51  0.0   0.0     140914 F51  0.0   0.1+    150612 F51  0.0   0.1-
    140702 F51  0.0   0.0     140930 F51  0.0   0.0     150715 F51  0.0   0.1+
    140702 F51  0.0   0.1+    140930 F51  0.0   0.1+    150715 F51  0.1+  0.0
    140702 F51  0.1-  0.1+    140930 F51  0.0   0.1-    150715 F51  0.0   0.0
    140702 F51  0.0   0.0     140930 F51  0.0   0.1+    150715 F51  0.0   0.1+
    
    Ephemeris:
    2014 NW65                a,e,i = 23.05, 0.52, 20                 q = 11.094
    Date    TT    R. A. (2000) Decl.     Delta      r     Elong.  Phase     V
    2016 06 16    21 13 49.6 +05 14 58  24.7249 25.2514   120.2     2.0    20.6
    ...
    2016 07 01    21 12 35.1 +05 18 11  24.5181 25.2263   133.3     1.7    20.6
    ...
    2016 07 09    21 11 46.0 +05 18 13  24.4255 25.2130   140.0     1.5    20.5
    ...
    2016 07 15    21 11 05.8 +05 17 28  24.3654 25.2029   144.8     1.3    20.5
    2016 07 16    21 10 58.9 +05 17 17  24.3562 25.2013   145.6     1.3    20.5
    2016 07 17    21 10 51.9 +05 17 05  24.3473 25.1996   146.3     1.3    20.5
    ...
    2016 07 23    21 10 08.7 +05 15 28  24.2988 25.1895   150.7     1.1    20.5
    ...
    2016 07 31    21 09 08.8 +05 12 21  24.2484 25.1762   155.6     1.0    20.5
    ...
    2016 08 15    21 07 13.8 +05 03 43  24.2009 25.1510   159.3     0.8    20.5
    
    A. U. Tomatic                (C) Copyright 2016 MPC           M.P.E.C. 2016-O02
    

    Read MPEC 2016-O01 Read MPEC 2016-O03


    MPEC number:

    Enter an MPEC number in one of the following forms:

    • 1997-B01 (the full form)
    • J97B01 (the packed version of the full form)
    • B01 (the abbreviated form)